COSMOS 2251 DEB

Satellite information

Favourite Embed

Satellite Type and Status

DEBRISIN ORBIT

Key statistics

Satellite COSMOS 2251 DEB at a glance.

Uptime

11822

Days in orbit

Revolutions

≈ 14.6

Per day

Orbit

LEO

Low Earth Orbit

Inclination

74.0

Latest

Satellite identification and parameters

Extended collection of information and parameters for COSMOS 2251 DEB.

Object identification

Identified? True

Debris? True

Object name: COSMOS 2251 DEB

International designator: 1993-036BRW

Object number (NORAD): 38064

Object ID (CCSDS): 38064

Country: COMMONWEALTH OF INDEPENDENT STATES (CIS)

Current information (Y/N): Y

RCS size: SMALL

Orbital parameters

Period: 98.914 minutes

Inclination: 74.0234 deg

SMA: 7084.876 km

Apoapsis: 740.374 km

Periapsis: 673.108 km

RAAN: 212.5209 deg

Eccentricy: 0.00474714

Argument of periapsis: 340.3613 deg

Mean anomaly: 19.572 deg

Mean motion: 14.55809054 rev/day

Mean motion (dot): 0.00004641 rev/day2

B* drag term: 0.0010492714 1/REarth

Two-line elements (TLE)

Creation date: Oct. 27, 2025, 10:32 a.m.

Reference frame: TEME

Reference center: EARTH

Epoch: Oct. 27, 2025, 3:57 a.m. UTC

TLE line 0: 0 COSMOS 2251 DEB

TLE line 1: 1 38064U 93036BRW 25300.16498723 .00004641 00000-0 10493-2 0 9996

TLE line 2: 2 38064 74.0234 212.5209 0047471 340.3613 19.5720 14.55809054711876

Live tracking on map

Real-time ground track for satellite COSMOS 2251 DEB.

In-orbit conjunctions

A list of the most updated potential collisions computed for object COSMOS 2251 DEB.

Target Orbit TCA Probability of collision Miss distance Type
COSMOS 2251 DEB LEO 2025-06-25 23:46:52 0.0001020083 442.0 (m) DEBRIS
MAST SSO 2025-02-12 23:17:36 0.001478726 356.0 (m) PAYLOAD
CZ-6A DEB LEO 2024-10-27 09:56:46 0.0002063427 280.0 (m) DEBRIS
SCOUT B-1 R/B LEO 2024-06-29 01:36:24 0.0007054994 282.0 (m) ROCKET BODY

Associated space launch

Military communications satellite. Destroyed in a collision with Iridium 33.

COSMOS 2251 DEB was lifted into orbit during the mission ‘Kosmos-3M | Strela-2M 51’, on board a Kosmos-3M space rocket.

The launch took place on June 16, 1993, 4:17 a.m. from 132/1 (132L).

For more information about the launch, click the button.

Launch to space Kosmos-3M | Strela-2M 51
Kosmos-3M | Strela-2M 51

Agency: N/A

Status: Launch Successful

Launch date: June 16, 1993, 4:17 a.m. UTC

Rocket: Kosmos-3M

Launch pad: 132/1 (132L)

Location: Plesetsk Cosmodrome, Russian Federation

...

Latest news about this satellite

There are no fresh news available about this satellite. Check back as we update our databases every day.


Newsletter sign-up

Weekly statistics, charts and insights to help you stay on top of the space industry.